Flag for U.S.A. Weather past 2 weeks in Green Bay, Wisconsin, U.S.A.

Now
82 °F

Sunny.


Feels Like: 89 °F
Forecast: 69 / 84 °F
Wind: 8 mph from Southwest

Location: Austin Straubel International Airport

Current Time: Sep 2, 2015 at 10:58:17 AM

Latest Report: Sep 2, 2015 at 9:53 AM


Visibility: 6 mi

Pressure: 29.97 "Hg

Humidity: 79%

Dew point: 75 °F

Location of Green BayLocation

Historic Weather in Green Bay — Graph

°F

Green Bay temperature yesterday

Maximum temperature yesterday: 88 °F (at 3:53 PM)
Minimum temperature yesterday: 65 °F (at 3:53 AM)
Average temperature yesterday: 76 °F

Past Weeks' High & Low Weather Summary

 TemperatureHumidityPressure
High88 °F (Sep 1, 3:53 PM)100% (Aug 27, 7:53 AM)30.20 "Hg (Aug 27, 7:53 AM)
Low48 °F (Aug 27, 5:01 AM)48% (Aug 22, 5:53 PM)29.52 "Hg (Aug 19, 10:53 AM)
Average65 °F81%29.94 "Hg
* Reported Aug 18 9:53 AM — Sep 2 9:53 AM, Green Bay, Weather by CustomWeather, © 2015

Note: Actual official high and low records may vary slightly from our data, if they occured in-between our weather recording intervals... More about our weather records

Advertising

Green Bay weather history for previous 24 hours

 ConditionsComfort  
Time TempWeatherWind HumidityBarometerVisibility
9:53 AM
Wed, Sep 2
82 °FSunny.8 mph79%29.97 "Hg6 mi
8:53 AM77 °FFog.5 mph90%29.97 "Hg3 mi
8:00 AM74 °FFog.No wind94%29.99 "Hg1 mi
7:00 AM70 °FFog.No wind93%29.99 "Hg1 mi
5:53 AM69 °FFog.No wind96%29.96 "Hg1 mi
4:53 AM71 °FFog.3 mph93%29.95 "Hg2 mi
3:53 AM71 °FFog.No wind93%29.94 "Hg2 mi
2:51 AM70 °FFog.3 mph97%29.95 "Hg2 mi
1:53 AM70 °FFog.No wind93%29.95 "Hg2 mi
12:53 AM73 °FFog.5 mph94%29.96 "Hg4 mi
11:53 PM
Tue, Sep 1
74 °FFog.3 mph91%29.96 "Hg6 mi
10:53 PM74 °FFog.3 mph88%29.96 "Hg6 mi
9:53 PM75 °FClear.3 mph88%29.95 "Hg7 mi
8:53 PM76 °FClear.5 mph85%29.95 "Hg8 mi
7:53 PM78 °FSunny.6 mph79%29.93 "Hg9 mi
6:53 PM81 °FSunny.5 mph72%29.92 "Hg8 mi
5:53 PM84 °FSunny.6 mph65%29.92 "Hg8 mi
3:53 PM88 °FSunny.10 mph59%29.92 "Hg9 mi
2:53 PM87 °FSunny.9 mph63%29.93 "Hg8 mi
1:53 PM86 °FPartly sunny.13 mph61%29.94 "Hg8 mi
12:53 PM85 °FSunny.8 mph70%29.94 "Hg7 mi
11:53 AM83 °FSunny.5 mph72%29.96 "Hg5 mi
10:53 AM80 °FSunny.7 mph76%29.98 "Hg5 mi
Weather by CustomWeather, © 2015

See weather overviewHow to use our weather pages